Terug naar catalogus

STARLINK-36616

ActiefCommunicatieSSO
NORAD 67672·PAYLOAD·🇺🇸 United States

Gelanceerd Feb 2, 2026 vanaf Vandenberg Space Force Base

Loading…

Volgende Passages (komende 24 uur)

TLE

VersSource: CelesTrak SupGP

Epoch: Sep 15, 2026, 04:04 UTC

1 67672C 26022AA  26258.16993056 -.00059501  00000+0 -18471-2 0  2584
2 67672  97.2841 289.8561 0001065  98.9404 249.3013 15.33469325    10

Volg STARLINK-36616 in realtime met AllMySat

Download on the App Store